Total_Precipitation_Accumulation
0.07 0.08 0.15 0.15 0.08 0.08 0.12 0.17 0.19 0.19 0.15 0.12 0.10 0.08 0.06 0.05 0.05 0.05 0.06 0.09 0.13 0.16 0.17 0.19 0.22 0.22 0.23 0.24 0.25 0.25 0.27 0.33 0.44 0.51 0.56 0.61 0.73 0.91 1.05 1.19 1.30 0.92 0.70
0.02 0.05 0.14 0.15 0.09 0.08 0.10 0.14 0.16 0.16 0.13 0.11 0.09 0.07 0.06 0.05 0.05 0.07 0.09 0.11 0.14 0.16 0.17 0.17 0.19 0.20 0.20 0.18 0.19 0.23 0.27 0.36 0.56 0.71 0.79 0.75 0.87 1.06 1.04 1.06 1.21 0.79 0.67
0.03 0.05 0.10 0.16 0.10 0.08 0.09 0.11 0.13 0.13 0.11 0.11 0.08 0.07 0.06 0.07 0.08 0.10 0.13 0.16 0.17 0.17 0.17 0.15 0.18 0.19 0.17 0.16 0.20 0.24 0.34 0.52 0.80 1.05 1.33 1.02 0.68 0.99 1.04 1.02 0.91 0.63 0.56
0.06 0.05 0.05 0.10 0.11 0.08 0.08 0.10 0.13 0.12 0.11 0.10 0.08 0.07 0.08 0.09 0.12 0.13 0.16 0.18 0.18 0.18 0.16 0.16 0.19 0.17 0.16 0.19 0.23 0.30 0.41 0.57 0.85 1.22 1.42 0.95 0.54 0.70 0.81 0.78 0.67 0.50 0.46
0.06 0.04 0.05 0.08 0.09 0.08 0.08 0.11 0.12 0.12 0.11 0.10 0.09 0.09 0.10 0.12 0.14 0.15 0.16 0.16 0.18 0.19 0.18 0.20 0.20 0.15 0.15 0.18 0.25 0.34 0.46 0.64 1.02 1.17 0.90 0.94 0.95 0.79 0.66 0.62 0.60 0.48 0.46
0.07 0.05 0.06 0.10 0.10 0.09 0.10 0.12 0.13 0.11 0.11 0.10 0.10 0.10 0.12 0.13 0.15 0.15 0.17 0.18 0.19 0.19 0.18 0.19 0.18 0.17 0.19 0.21 0.27 0.37 0.51 0.71 1.00 0.77 0.61 0.76 0.82 0.74 0.68 0.66 0.60 0.51 0.50
0.06 0.07 0.08 0.12 0.11 0.10 0.10 0.12 0.12 0.12 0.11 0.11 0.10 0.10 0.13 0.15 0.16 0.16 0.18 0.19 0.21 0.21 0.19 0.18 0.17 0.20 0.25 0.29 0.35 0.41 0.55 0.76 0.81 0.67 0.72 0.88 0.85 0.73 0.93 1.02 0.84 0.63 0.47
0.06 0.07 0.11 0.13 0.12 0.11 0.11 0.12 0.13 0.13 0.13 0.12 0.12 0.12 0.14 0.15 0.17 0.18 0.18 0.20 0.22 0.23 0.22 0.20 0.18 0.20 0.23 0.27 0.34 0.42 0.56 0.67 0.68 0.65 0.77 0.89 0.70 0.75 1.14 1.27 1.13 0.93 0.66
0.14 0.10 0.13 0.13 0.13 0.14 0.15 0.15 0.14 0.15 0.15 0.15 0.15 0.15 0.15 0.15 0.17 0.20 0.21 0.22 0.25 0.26 0.25 0.24 0.24 0.24 0.22 0.25 0.34 0.47 0.60 0.68 0.67 0.72 0.74 0.84 0.66 0.80 1.18 1.22 1.07 0.98 0.77
0.35 0.28 0.23 0.21 0.20 0.19 0.18 0.18 0.18 0.18 0.19 0.20 0.18 0.19 0.21 0.24 0.25 0.28 0.27 0.29 0.33 0.33 0.34 0.35 0.36 0.36 0.35 0.33 0.39 0.51 0.62 0.60 0.66 0.76 0.82 0.80 0.70 0.98 1.28 1.28 1.20 1.10 0.91
0.62 0.56 0.43 0.36 0.29 0.29 0.27 0.24 0.28 0.29 0.29 0.31 0.33 0.33 0.40 0.60 0.62 0.64 0.53 0.55 0.56 0.55 0.57 0.58 0.59 0.60 0.57 0.52 0.59 0.66 0.63 0.69 0.96 0.87 0.86 0.81 0.89 1.17 1.38 1.45 1.42 1.33 1.18
0.83 0.63 0.61 0.59 0.42 0.42 0.42 0.47 0.63 0.63 0.64 0.67 0.72 0.71 0.91 1.04 0.98 0.79 0.78 0.95 1.00 1.04 1.03 1.04 1.12 1.07 0.90 0.72 0.89 1.19 0.86 0.86 0.97 0.87 0.76 0.83 1.02 1.31 1.52 1.59 1.45 1.35 1.29
0.99 0.84 0.94 0.90 0.72 0.63 0.74 0.67 0.79 0.98 1.13 1.13 1.10 1.22 1.36 1.22 1.04 0.92 1.03 1.25 1.33 1.39 1.40 1.54 1.72 1.49 1.46 1.44 1.49 1.50 1.17 1.18 1.10 0.96 1.02 1.21 1.33 1.61 1.81 1.72 1.62 1.48 1.36
1.48 1.41 1.40 1.39 1.29 1.19 1.04 1.03 0.97 0.98 1.08 1.23 1.29 1.29 1.49 1.52 1.45 1.36 1.32 1.33 1.41 1.52 1.76 1.83 1.96 2.04 2.08 1.87 1.74 1.73 1.59 1.45 1.36 1.35 1.50 1.68 1.70 1.89 2.09 1.95 1.80 1.66 1.55
2.21 2.29 2.27 2.10 1.85 1.86 1.74 1.51 1.21 1.21 1.20 1.21 1.41 1.47 1.59 1.69 1.78 1.77 1.63 1.59 1.42 1.52 1.82 2.07 2.00 2.15 2.31 2.20 1.94 1.80 1.70 1.55 1.53 1.48 1.58 1.78 1.67 1.74 2.03 2.10 2.04 1.92 1.85
3.00 3.37 3.16 2.94 2.60 2.42 2.24 2.02 1.87 1.63 1.53 1.38 1.46 1.55 1.77 1.93 1.99 1.97 1.81 1.71 1.44 1.46 1.69 1.97 1.98 2.16 2.18 2.21 1.86 1.72 1.62 1.64 1.61 1.49 1.56 1.73 1.71 1.58 1.72 2.02 2.21 2.27 2.18
3.62 4.12 3.87 3.73 3.64 3.33 3.04 2.59 2.17 1.81 1.62 1.72 1.79 1.95 2.07 2.17 2.21 2.16 2.00 1.73 1.60 1.72 1.80 1.81 1.87 2.25 2.10 1.98 1.79 1.85 1.82 1.75 1.63 1.56 1.56 1.68 1.51 1.45 1.46 1.62 1.92 2.18 2.42
3.83 4.15 4.44 4.19 4.47 4.30 3.85 3.28 2.75 2.44 2.31 2.22 2.12 2.23 2.14 2.13 2.16 2.28 1.96 1.64 1.76 1.92 1.87 1.83 1.89 2.12 2.12 2.21 2.11 1.96 1.84 1.73 1.39 1.32 1.35 1.38 1.47 1.25 1.35 1.59 1.72 1.84 2.25
4.09 4.51 4.88 5.09 5.12 4.66 4.16 3.63 3.27 3.00 2.77 2.45 2.01 1.79 1.67 1.60 1.58 1.60 1.32 1.22 1.43 1.51 1.39 1.34 1.61 1.77 1.81 1.95 1.92 1.71 1.50 1.36 1.21 1.14 1.17 1.02 1.09 1.13 1.17 1.40 1.60 1.66 2.08
4.20 4.97 5.32 5.35 4.89 4.37 3.88 3.31 3.00 2.70 2.50 2.25 1.80 1.48 1.28 1.22 1.16 1.17 0.95 0.90 1.14 1.26 1.21 1.30 1.38 1.39 1.33 1.42 1.31 1.12 1.07 0.93 0.95 0.93 0.82 0.82 0.81 0.81 0.95 1.14 1.39 1.28 1.75
4.34 5.20 5.44 5.08 4.47 3.87 3.32 2.71 2.26 1.97 1.79 1.74 1.50 1.22 1.12 1.09 1.06 1.14 0.96 1.03 1.13 1.15 1.14 1.18 1.19 1.12 0.96 1.11 1.22 1.04 0.85 0.76 0.76 0.67 0.63 0.66 0.61 0.67 0.89 1.08 1.26 1.33 1.28
3.81 4.50 4.65 4.20 3.54 2.84 2.37 2.12 1.91 1.76 1.47 1.31 1.24 1.11 0.90 0.89 0.90 0.96 0.95 0.79 0.82 0.88 0.81 0.84 1.00 1.04 0.88 0.97 1.11 1.08 0.89 0.88 0.77 0.50 0.52 0.55 0.54 0.65 0.82 0.92 1.15 1.32 1.31
3.28 3.23 3.26 3.00 2.44 2.04 1.79 1.67 1.56 1.54 1.37 1.14 1.02 0.86 0.71 0.65 0.65 0.70 0.68 0.68 0.75 0.77 0.80 0.78 0.81 0.87 0.81 0.77 0.89 1.06 0.93 0.77 0.66 0.56 0.50 0.47 0.55 0.70 0.79 0.96 1.04 1.10 1.22
2.38 2.16 2.10 2.10 1.88 1.71 1.55 1.39 1.20 1.03 0.95 0.86 0.81 0.72 0.64 0.58 0.55 0.53 0.54 0.53 0.60 0.66 0.77 0.67 0.68 0.71 0.72 0.64 0.66 0.74 0.75 0.74 0.72 0.62 0.54 0.51 0.55 0.68 0.82 0.91 1.04 1.11 1.11
1.50 1.47 1.55 1.75 1.76 1.63 1.55 1.49 1.38 1.10 0.91 0.83 0.80 0.77 0.68 0.62 0.57 0.52 0.51 0.53 0.51 0.50 0.54 0.58 0.68 0.65 0.65 0.60 0.59 0.63 0.71 0.74 0.72 0.68 0.64 0.58 0.52 0.47 0.60 0.79 0.95 1.05 1.00
0.89 0.97 1.14 1.49 1.63 1.56 1.48 1.42 1.31 1.16 1.02 0.87 0.77 0.69 0.64 0.63 0.63 0.59 0.55 0.58 0.54 0.50 0.52 0.54 0.56 0.56 0.61 0.67 0.64 0.65 0.75 0.78 0.73 0.72 0.67 0.61 0.55 0.47 0.50 0.68 0.93 1.07 1.03